Regional Weather Roundup
Issued by NWS Newport/Morehead, NC

Current Version | Previous Version | Text Only | Print | Product List | Glossary On
Versions: 1 2 3 4 5 6 7 8 9 10 11 12 13 14 15 16 17 18 19 20 21 22 23 24 25 26 27 28 29 30 31 32 33 34 35 36 37 38 39 40 41 42 43 44 45 46 47 48 49 50
000
ASUS42 KMHX 281925
RWRMHX
WEATHER ROUNDUP FOR EASTERN NORTH CAROLINA
NATIONAL WEATHER SERVICE NEWPORT/MOREHEAD CITY NC
300 PM EDT SUN AUG 28 2016

NOTE: "FAIR" INDICATES FEW OR NO CLOUDS BELOW 12,000 FEET
WITH NO SIGNIFICANT WEATHER AND/OR OBSTRUCTIONS TO VISIBILITY

NCZ015>017-031-032-045>047-102-103-282000-
NORTH COAST

CITY           SKY/WX    TMP DP  RH WIND       PRES   REMARKS
EDENTON        CLOUDY    86  73  64 NE7G18    30.14S
ELIZABETH CITY CLOUDY    83  74  74 NE17      30.13F
KITTY HAWK     CLOUDY    81  81  99 NE7       30.12F
MANTEO         CLOUDY    80  80 100 NE14      30.13F

$$

NCZ045>047-081-094-103-104-282000-
CENTRAL COAST

CITY           SKY/WX    TMP DP  RH WIND       PRES   REMARKS
FRISCO         CLOUDY    83  77  82 VRB5      30.11F

$$

NCZ095-097-098-100-101-282000-
SOUTHERN COAST

CITY           SKY/WX    TMP DP  RH WIND       PRES   REMARKS
BEAUFORT       CLOUDY    84  76  76 N6        30.11F
CEDAR ISLAND   NOT AVBL
JACKSONVILLE   TSTM      80  72  76 NE16G29   30.13R
PINEY ISLAND   NOT AVBL
WILMINGTON     TSTM      78  73  84 N15G24    30.12S


$$

NCZ011>013-027>030-043-044-078>080-089-090>093-098-282000-
COASTAL PLAIN

CITY           SKY/WX    TMP DP  RH WIND       PRES   REMARKS
AHOSKIE        MOSUNNY   88  69  53 N10G21    30.14F
CLINTON        CLOUDY    86  73  64 N3        30.13F
ELIZABETHTOWN  CLOUDY    86  71  61 NW3       30.13F
GOLDSBORO      MOSUNNY   90  71  53 NE9       30.11F
GREENVILLE     CLOUDY    86  73  66 NE9       30.14F
HAVELOCK       TSTM      78  75  90 NW9       30.14R VSB 1/2
KENANSVILLE    PTSUNNY   86  72  62 E3        30.12F
KINSTON        HVY RAIN  79  73  83 NE18G35   30.15R
NEW BERN       CLOUDY    77  75  93 W3        30.13F
RICHLANDS      TSTM      75  72  88 NE18G37   30.14R
ROCKY MOUNT    MOSUNNY   88  71  57 NE8       30.13F
WASHINGTON     RAIN      81  76  83 NE10      30.13F
WHITEVILLE     CLOUDY    85  71  63 N5        30.11F

$$

AMZ130-135-150-152-154-156-158-170-250-252-270-ANZ085-086-088-633-658-670-282000-
MARINE OBSERVATIONS

STATION/POSITION TIME  TEMP    WIND        PRES    WAVE   SWELL
                       AIR SEA DIR/SP/G            HT/PER HT/PER
                 (UTC) (F)     (DEG/KT/KT) (MB)    (FT/S) (FT/S)
CHESAPEAKE LIGHT NOT AVBL
64 E VA BEACH    1850   81 81   40/ 16/ 19 1020.2    4/ 8   2/ 8
DUCK             1900   80 77   30/ 17/ 20 1019.7
2 E DUCK         1811      78                N/A     4/ 6
OREGON INLET     1900   82 79   40/  7/  9 1019.6
13E OREGON INLT  1900      81                N/A     3/ 8   3/ 8
HATTERAS CG      1900   81 83   30/  8/ 11 1019.4
DIAMOND BUOY     1850   83 85   70/ 10/ 14 1019.4    3/ 8   2/ 8
CAPE LOOKOUT     1900   83      40/ 11/ 12 1019.1
BEAUFORT LAB     1900   83 82  360/  5/  7 1018.9
30 SE NEW RVR IN 1908   84 84   60/ 10/ 14 1019.2
30 SE NEW RVR IN 1825      84                N/A     3/ 8
27 SE WRIGHTSVLE 1908   84 84   50/ 10/ 14 1019.3
5 SE WRIGHTSVLE  1908   83 83   60/ 12/ 16 1020.3
225 S CAPE HAT   1850   83 85   50/ 10/ 10 1017.0    3/15   3/15
41 SE CHARLESTON 1850   83 86   50/  8/ 10 1017.7    3/ 9   3/ 9

$$



USA.gov is the U.S. government's official web portal to all federal, state and local government web resources and services.